Index of /20260501/WXO-DD/model_caps/3km/12/048
Name Last modified Size Description
Parent Directory -
20260501T12Z_MSC_CAPS_AbsoluteVorticity_IsbL-0250_RLatLon0.03_PT048H.grib2 2026-05-01 18:27 1.0M
20260501T12Z_MSC_CAPS_AbsoluteVorticity_IsbL-0500_RLatLon0.03_PT048H.grib2 2026-05-01 18:27 1.1M
20260501T12Z_MSC_CAPS_AbsoluteVorticity_IsbL-0700_RLatLon0.03_PT048H.grib2 2026-05-01 18:27 1.1M
20260501T12Z_MSC_CAPS_AbsoluteVorticity_IsbL-0850_RLatLon0.03_PT048H.grib2 2026-05-01 18:27 1.2M
20260501T12Z_MSC_CAPS_AbsoluteVorticity_IsbL-1000_RLatLon0.03_PT048H.grib2 2026-05-01 18:27 1.4M
20260501T12Z_MSC_CAPS_AirDensity_AGL-120m_RLatLon0.03_PT048H.grib2 2026-05-01 18:27 1.4M
20260501T12Z_MSC_CAPS_AirDensity_AGL-40m_RLatLon0.03_PT048H.grib2 2026-05-01 18:27 1.4M
20260501T12Z_MSC_CAPS_AirDensity_AGL-80m_RLatLon0.03_PT048H.grib2 2026-05-01 18:27 1.4M
20260501T12Z_MSC_CAPS_AirTemp_AGL-120m_RLatLon0.03_PT048H.grib2 2026-05-01 18:27 1.4M
20260501T12Z_MSC_CAPS_AirTemp_AGL-2m_RLatLon0.03_PT048H.grib2 2026-05-01 18:27 1.7M
20260501T12Z_MSC_CAPS_AirTemp_AGL-40m_RLatLon0.03_PT048H.grib2 2026-05-01 18:27 1.5M
20260501T12Z_MSC_CAPS_AirTemp_AGL-80m_RLatLon0.03_PT048H.grib2 2026-05-01 18:27 1.4M
20260501T12Z_MSC_CAPS_AirTemp_IsbL-0050_RLatLon0.03_PT048H.grib2 2026-05-01 18:27 692K
20260501T12Z_MSC_CAPS_AirTemp_IsbL-0100_RLatLon0.03_PT048H.grib2 2026-05-01 18:27 733K
20260501T12Z_MSC_CAPS_AirTemp_IsbL-0150_RLatLon0.03_PT048H.grib2 2026-05-01 18:27 750K
20260501T12Z_MSC_CAPS_AirTemp_IsbL-0175_RLatLon0.03_PT048H.grib2 2026-05-01 18:27 767K
20260501T12Z_MSC_CAPS_AirTemp_IsbL-0200_RLatLon0.03_PT048H.grib2 2026-05-01 18:27 784K
20260501T12Z_MSC_CAPS_AirTemp_IsbL-0225_RLatLon0.03_PT048H.grib2 2026-05-01 18:27 789K
20260501T12Z_MSC_CAPS_AirTemp_IsbL-0250_RLatLon0.03_PT048H.grib2 2026-05-01 18:27 1.0M
20260501T12Z_MSC_CAPS_AirTemp_IsbL-0275_RLatLon0.03_PT048H.grib2 2026-05-01 18:27 1.0M
20260501T12Z_MSC_CAPS_AirTemp_IsbL-0300_RLatLon0.03_PT048H.grib2 2026-05-01 18:27 1.0M
20260501T12Z_MSC_CAPS_AirTemp_IsbL-0350_RLatLon0.03_PT048H.grib2 2026-05-01 18:27 743K
20260501T12Z_MSC_CAPS_AirTemp_IsbL-0400_RLatLon0.03_PT048H.grib2 2026-05-01 18:27 753K
20260501T12Z_MSC_CAPS_AirTemp_IsbL-0450_RLatLon0.03_PT048H.grib2 2026-05-01 18:27 776K
20260501T12Z_MSC_CAPS_AirTemp_IsbL-0500_RLatLon0.03_PT048H.grib2 2026-05-01 18:27 949K
20260501T12Z_MSC_CAPS_AirTemp_IsbL-0550_RLatLon0.03_PT048H.grib2 2026-05-01 18:27 960K
20260501T12Z_MSC_CAPS_AirTemp_IsbL-0600_RLatLon0.03_PT048H.grib2 2026-05-01 18:27 1.0M
20260501T12Z_MSC_CAPS_AirTemp_IsbL-0650_RLatLon0.03_PT048H.grib2 2026-05-01 18:27 1.0M
20260501T12Z_MSC_CAPS_AirTemp_IsbL-0700_RLatLon0.03_PT048H.grib2 2026-05-01 18:27 1.0M
20260501T12Z_MSC_CAPS_AirTemp_IsbL-0750_RLatLon0.03_PT048H.grib2 2026-05-01 18:27 1.0M
20260501T12Z_MSC_CAPS_AirTemp_IsbL-0800_RLatLon0.03_PT048H.grib2 2026-05-01 18:27 1.1M
20260501T12Z_MSC_CAPS_AirTemp_IsbL-0850_RLatLon0.03_PT048H.grib2 2026-05-01 18:27 1.1M
20260501T12Z_MSC_CAPS_AirTemp_IsbL-0875_RLatLon0.03_PT048H.grib2 2026-05-01 18:27 1.1M
20260501T12Z_MSC_CAPS_AirTemp_IsbL-0900_RLatLon0.03_PT048H.grib2 2026-05-01 18:27 1.1M
20260501T12Z_MSC_CAPS_AirTemp_IsbL-0925_RLatLon0.03_PT048H.grib2 2026-05-01 18:27 1.2M
20260501T12Z_MSC_CAPS_AirTemp_IsbL-0950_RLatLon0.03_PT048H.grib2 2026-05-01 18:27 1.1M
20260501T12Z_MSC_CAPS_AirTemp_IsbL-0970_RLatLon0.03_PT048H.grib2 2026-05-01 18:27 1.0M
20260501T12Z_MSC_CAPS_AirTemp_IsbL-0985_RLatLon0.03_PT048H.grib2 2026-05-01 18:27 1.0M
20260501T12Z_MSC_CAPS_AirTemp_IsbL-1000_RLatLon0.03_PT048H.grib2 2026-05-01 18:27 1.0M
20260501T12Z_MSC_CAPS_AirTemp_IsbL-1015_RLatLon0.03_PT048H.grib2 2026-05-01 18:27 1.0M
20260501T12Z_MSC_CAPS_Albedo_Sfc_RLatLon0.03_PT048H.grib2 2026-05-01 18:27 2.7M
20260501T12Z_MSC_CAPS_CAPE_Sfc_RLatLon0.03_PT048H.grib2 2026-05-01 18:27 181K
20260501T12Z_MSC_CAPS_CloudWater_EAtm_RLatLon0.03_PT048H.grib2 2026-05-01 18:27 1.5M
20260501T12Z_MSC_CAPS_ConvectivePrecip-Accum_Sfc_RLatLon0.03_PT048H.grib2 2026-05-01 18:27 4.8M
20260501T12Z_MSC_CAPS_DewPointDepression_AGL-120m_RLatLon0.03_PT048H.grib2 2026-05-01 18:27 2.0M
20260501T12Z_MSC_CAPS_DewPointDepression_AGL-2m_RLatLon0.03_PT048H.grib2 2026-05-01 18:27 2.1M
20260501T12Z_MSC_CAPS_DewPointDepression_AGL-40m_RLatLon0.03_PT048H.grib2 2026-05-01 18:27 2.0M
20260501T12Z_MSC_CAPS_DewPointDepression_AGL-80m_RLatLon0.03_PT048H.grib2 2026-05-01 18:27 2.0M
20260501T12Z_MSC_CAPS_DewPointDepression_IsbL-0050_RLatLon0.03_PT048H.grib2 2026-05-01 18:27 17K
20260501T12Z_MSC_CAPS_DewPointDepression_IsbL-0100_RLatLon0.03_PT048H.grib2 2026-05-01 18:27 108K
20260501T12Z_MSC_CAPS_DewPointDepression_IsbL-0150_RLatLon0.03_PT048H.grib2 2026-05-01 18:27 100K
20260501T12Z_MSC_CAPS_DewPointDepression_IsbL-0175_RLatLon0.03_PT048H.grib2 2026-05-01 18:27 244K
20260501T12Z_MSC_CAPS_DewPointDepression_IsbL-0200_RLatLon0.03_PT048H.grib2 2026-05-01 18:27 389K
20260501T12Z_MSC_CAPS_DewPointDepression_IsbL-0225_RLatLon0.03_PT048H.grib2 2026-05-01 18:27 649K
20260501T12Z_MSC_CAPS_DewPointDepression_IsbL-0250_RLatLon0.03_PT048H.grib2 2026-05-01 18:27 853K
20260501T12Z_MSC_CAPS_DewPointDepression_IsbL-0275_RLatLon0.03_PT048H.grib2 2026-05-01 18:27 1.0M
20260501T12Z_MSC_CAPS_DewPointDepression_IsbL-0300_RLatLon0.03_PT048H.grib2 2026-05-01 18:27 1.0M
20260501T12Z_MSC_CAPS_DewPointDepression_IsbL-0350_RLatLon0.03_PT048H.grib2 2026-05-01 18:27 1.1M
20260501T12Z_MSC_CAPS_DewPointDepression_IsbL-0400_RLatLon0.03_PT048H.grib2 2026-05-01 18:27 1.1M
20260501T12Z_MSC_CAPS_DewPointDepression_IsbL-0450_RLatLon0.03_PT048H.grib2 2026-05-01 18:27 1.1M
20260501T12Z_MSC_CAPS_DewPointDepression_IsbL-0500_RLatLon0.03_PT048H.grib2 2026-05-01 18:27 1.2M
20260501T12Z_MSC_CAPS_DewPointDepression_IsbL-0550_RLatLon0.03_PT048H.grib2 2026-05-01 18:27 1.2M
20260501T12Z_MSC_CAPS_DewPointDepression_IsbL-0600_RLatLon0.03_PT048H.grib2 2026-05-01 18:27 1.3M
20260501T12Z_MSC_CAPS_DewPointDepression_IsbL-0650_RLatLon0.03_PT048H.grib2 2026-05-01 18:27 1.3M
20260501T12Z_MSC_CAPS_DewPointDepression_IsbL-0700_RLatLon0.03_PT048H.grib2 2026-05-01 18:27 1.3M
20260501T12Z_MSC_CAPS_DewPointDepression_IsbL-0750_RLatLon0.03_PT048H.grib2 2026-05-01 18:27 1.4M
20260501T12Z_MSC_CAPS_DewPointDepression_IsbL-0800_RLatLon0.03_PT048H.grib2 2026-05-01 18:27 1.4M
20260501T12Z_MSC_CAPS_DewPointDepression_IsbL-0850_RLatLon0.03_PT048H.grib2 2026-05-01 18:27 1.4M
20260501T12Z_MSC_CAPS_DewPointDepression_IsbL-0875_RLatLon0.03_PT048H.grib2 2026-05-01 18:27 1.4M
20260501T12Z_MSC_CAPS_DewPointDepression_IsbL-0900_RLatLon0.03_PT048H.grib2 2026-05-01 18:27 1.4M
20260501T12Z_MSC_CAPS_DewPointDepression_IsbL-0925_RLatLon0.03_PT048H.grib2 2026-05-01 18:27 1.3M
20260501T12Z_MSC_CAPS_DewPointDepression_IsbL-0950_RLatLon0.03_PT048H.grib2 2026-05-01 18:27 1.3M
20260501T12Z_MSC_CAPS_DewPointDepression_IsbL-0970_RLatLon0.03_PT048H.grib2 2026-05-01 18:27 1.3M
20260501T12Z_MSC_CAPS_DewPointDepression_IsbL-0985_RLatLon0.03_PT048H.grib2 2026-05-01 18:27 1.3M
20260501T12Z_MSC_CAPS_DewPointDepression_IsbL-1000_RLatLon0.03_PT048H.grib2 2026-05-01 18:27 1.3M
20260501T12Z_MSC_CAPS_DewPointDepression_IsbL-1015_RLatLon0.03_PT048H.grib2 2026-05-01 18:27 1.3M
20260501T12Z_MSC_CAPS_DewPoint_AGL-120m_RLatLon0.03_PT048H.grib2 2026-05-01 18:27 3.6M
20260501T12Z_MSC_CAPS_DewPoint_AGL-2m_RLatLon0.03_PT048H.grib2 2026-05-01 18:27 2.1M
20260501T12Z_MSC_CAPS_DewPoint_AGL-40m_RLatLon0.03_PT048H.grib2 2026-05-01 18:27 3.6M
20260501T12Z_MSC_CAPS_DewPoint_AGL-80m_RLatLon0.03_PT048H.grib2 2026-05-01 18:27 3.6M
20260501T12Z_MSC_CAPS_DownwardLongwaveRadiationFlux-Accum_Sfc_RLatLon0.03_PT048H.grib2 2026-05-01 18:27 2.0M
20260501T12Z_MSC_CAPS_DownwardShortwaveRadiationFlux-Accum_NTAtm_RLatLon0.03_PT048H.grib2 2026-05-01 18:27 547K
20260501T12Z_MSC_CAPS_DownwardShortwaveRadiationFlux-Accum_Sfc_RLatLon0.03_PT048H.grib2 2026-05-01 18:27 3.0M
20260501T12Z_MSC_CAPS_FreezingRain-Accum_Sfc_RLatLon0.03_PT048H.grib2 2026-05-01 18:27 1.1M
20260501T12Z_MSC_CAPS_GeopotentialHeight_IsbL-0050_RLatLon0.03_PT048H.grib2 2026-05-01 18:27 641K
20260501T12Z_MSC_CAPS_GeopotentialHeight_IsbL-0100_RLatLon0.03_PT048H.grib2 2026-05-01 18:27 766K
20260501T12Z_MSC_CAPS_GeopotentialHeight_IsbL-0150_RLatLon0.03_PT048H.grib2 2026-05-01 18:27 723K
20260501T12Z_MSC_CAPS_GeopotentialHeight_IsbL-0175_RLatLon0.03_PT048H.grib2 2026-05-01 18:27 732K
20260501T12Z_MSC_CAPS_GeopotentialHeight_IsbL-0200_RLatLon0.03_PT048H.grib2 2026-05-01 18:27 746K
20260501T12Z_MSC_CAPS_GeopotentialHeight_IsbL-0225_RLatLon0.03_PT048H.grib2 2026-05-01 18:27 755K
20260501T12Z_MSC_CAPS_GeopotentialHeight_IsbL-0250_RLatLon0.03_PT048H.grib2 2026-05-01 18:27 769K
20260501T12Z_MSC_CAPS_GeopotentialHeight_IsbL-0275_RLatLon0.03_PT048H.grib2 2026-05-01 18:27 779K
20260501T12Z_MSC_CAPS_GeopotentialHeight_IsbL-0300_RLatLon0.03_PT048H.grib2 2026-05-01 18:27 781K
20260501T12Z_MSC_CAPS_GeopotentialHeight_IsbL-0350_RLatLon0.03_PT048H.grib2 2026-05-01 18:27 780K
20260501T12Z_MSC_CAPS_GeopotentialHeight_IsbL-0400_RLatLon0.03_PT048H.grib2 2026-05-01 18:27 775K
20260501T12Z_MSC_CAPS_GeopotentialHeight_IsbL-0450_RLatLon0.03_PT048H.grib2 2026-05-01 18:27 767K
20260501T12Z_MSC_CAPS_GeopotentialHeight_IsbL-0500_RLatLon0.03_PT048H.grib2 2026-05-01 18:27 756K
20260501T12Z_MSC_CAPS_GeopotentialHeight_IsbL-0550_RLatLon0.03_PT048H.grib2 2026-05-01 18:27 746K
20260501T12Z_MSC_CAPS_GeopotentialHeight_IsbL-0600_RLatLon0.03_PT048H.grib2 2026-05-01 18:27 731K
20260501T12Z_MSC_CAPS_GeopotentialHeight_IsbL-0650_RLatLon0.03_PT048H.grib2 2026-05-01 18:27 631K
20260501T12Z_MSC_CAPS_GeopotentialHeight_IsbL-0700_RLatLon0.03_PT048H.grib2 2026-05-01 18:27 634K
20260501T12Z_MSC_CAPS_GeopotentialHeight_IsbL-0750_RLatLon0.03_PT048H.grib2 2026-05-01 18:27 640K
20260501T12Z_MSC_CAPS_GeopotentialHeight_IsbL-0800_RLatLon0.03_PT048H.grib2 2026-05-01 18:27 641K
20260501T12Z_MSC_CAPS_GeopotentialHeight_IsbL-0850_RLatLon0.03_PT048H.grib2 2026-05-01 18:27 832K
20260501T12Z_MSC_CAPS_GeopotentialHeight_IsbL-0875_RLatLon0.03_PT048H.grib2 2026-05-01 18:27 839K
20260501T12Z_MSC_CAPS_GeopotentialHeight_IsbL-0900_RLatLon0.03_PT048H.grib2 2026-05-01 18:27 846K
20260501T12Z_MSC_CAPS_GeopotentialHeight_IsbL-0925_RLatLon0.03_PT048H.grib2 2026-05-01 18:27 837K
20260501T12Z_MSC_CAPS_GeopotentialHeight_IsbL-0950_RLatLon0.03_PT048H.grib2 2026-05-01 18:27 854K
20260501T12Z_MSC_CAPS_GeopotentialHeight_IsbL-0970_RLatLon0.03_PT048H.grib2 2026-05-01 18:27 872K
20260501T12Z_MSC_CAPS_GeopotentialHeight_IsbL-0985_RLatLon0.03_PT048H.grib2 2026-05-01 18:27 879K
20260501T12Z_MSC_CAPS_GeopotentialHeight_IsbL-1000_RLatLon0.03_PT048H.grib2 2026-05-01 18:27 886K
20260501T12Z_MSC_CAPS_GeopotentialHeight_IsbL-1015_RLatLon0.03_PT048H.grib2 2026-05-01 18:27 694K
20260501T12Z_MSC_CAPS_GeopotentialHeight_Sfc_RLatLon0.03_PT048H.grib2 2026-05-01 18:27 1.0M
20260501T12Z_MSC_CAPS_IcePellets-Accum_Sfc_RLatLon0.03_PT048H.grib2 2026-05-01 18:27 78K
20260501T12Z_MSC_CAPS_LatentHeatNetFlux_Sfc_RLatLon0.03_PT048H.grib2 2026-05-01 18:27 1.8M
20260501T12Z_MSC_CAPS_LiftedIndex-MU-VT_IsbL-0500_RLatLon0.03_PT048H.grib2 2026-05-01 18:27 3.4M
20260501T12Z_MSC_CAPS_MixedLayerThickness_Sfc_RLatLon0.03_PT048H.nc 2026-05-01 18:14 16M
20260501T12Z_MSC_CAPS_NetLongwaveRadiationFlux-Accum_Sfc_RLatLon0.03_PT048H.grib2 2026-05-01 18:27 2.9M
20260501T12Z_MSC_CAPS_NetShortwaveRadiationFlux-Accum_Sfc_RLatLon0.03_PT048H.grib2 2026-05-01 18:27 2.9M
20260501T12Z_MSC_CAPS_PlanetaryBoundaryLayerHeight_Sfc_RLatLon0.03_PT048H.grib2 2026-05-01 18:27 2.8M
20260501T12Z_MSC_CAPS_Precip-Accum_Sfc_RLatLon0.03_PT048H.grib2 2026-05-01 18:27 5.5M
20260501T12Z_MSC_CAPS_PrecipRate_Sfc_RLatLon0.03_PT048H.grib2 2026-05-01 18:27 606K
20260501T12Z_MSC_CAPS_PrecipType-Instant_Sfc_RLatLon0.03_PT048H.grib2 2026-05-01 18:27 1.9M
20260501T12Z_MSC_CAPS_Pressure_MSL_RLatLon0.03_PT048H.grib2 2026-05-01 18:27 921K
20260501T12Z_MSC_CAPS_Pressure_Sfc_RLatLon0.03_PT048H.grib2 2026-05-01 18:27 1.2M
20260501T12Z_MSC_CAPS_RadiativeTemp_Sfc_RLatLon0.03_PT048H.grib2 2026-05-01 18:27 2.1M
20260501T12Z_MSC_CAPS_Rain-Accum_Sfc_RLatLon0.03_PT048H.grib2 2026-05-01 18:27 2.8M
20260501T12Z_MSC_CAPS_RelativeHumidity_AGL-120m_RLatLon0.03_PT048H.grib2 2026-05-01 18:27 2.8M
20260501T12Z_MSC_CAPS_RelativeHumidity_AGL-2m_RLatLon0.03_PT048H.grib2 2026-05-01 18:27 2.9M
20260501T12Z_MSC_CAPS_RelativeHumidity_AGL-40m_RLatLon0.03_PT048H.grib2 2026-05-01 18:27 2.8M
20260501T12Z_MSC_CAPS_RelativeHumidity_AGL-80m_RLatLon0.03_PT048H.grib2 2026-05-01 18:27 2.8M
20260501T12Z_MSC_CAPS_RelativeHumidity_IsbL-0050_RLatLon0.03_PT048H.grib2 2026-05-01 18:27 741K
20260501T12Z_MSC_CAPS_RelativeHumidity_IsbL-0100_RLatLon0.03_PT048H.grib2 2026-05-01 18:27 884K
20260501T12Z_MSC_CAPS_RelativeHumidity_IsbL-0150_RLatLon0.03_PT048H.grib2 2026-05-01 18:27 498K
20260501T12Z_MSC_CAPS_RelativeHumidity_IsbL-0175_RLatLon0.03_PT048H.grib2 2026-05-01 18:27 491K
20260501T12Z_MSC_CAPS_RelativeHumidity_IsbL-0200_RLatLon0.03_PT048H.grib2 2026-05-01 18:27 685K
20260501T12Z_MSC_CAPS_RelativeHumidity_IsbL-0225_RLatLon0.03_PT048H.grib2 2026-05-01 18:27 891K
20260501T12Z_MSC_CAPS_RelativeHumidity_IsbL-0250_RLatLon0.03_PT048H.grib2 2026-05-01 18:27 1.1M
20260501T12Z_MSC_CAPS_RelativeHumidity_IsbL-0275_RLatLon0.03_PT048H.grib2 2026-05-01 18:27 1.4M
20260501T12Z_MSC_CAPS_RelativeHumidity_IsbL-0300_RLatLon0.03_PT048H.grib2 2026-05-01 18:27 1.5M
20260501T12Z_MSC_CAPS_RelativeHumidity_IsbL-0350_RLatLon0.03_PT048H.grib2 2026-05-01 18:27 1.8M
20260501T12Z_MSC_CAPS_RelativeHumidity_IsbL-0400_RLatLon0.03_PT048H.grib2 2026-05-01 18:27 2.1M
20260501T12Z_MSC_CAPS_RelativeHumidity_IsbL-0450_RLatLon0.03_PT048H.grib2 2026-05-01 18:27 2.0M
20260501T12Z_MSC_CAPS_RelativeHumidity_IsbL-0500_RLatLon0.03_PT048H.grib2 2026-05-01 18:27 2.2M
20260501T12Z_MSC_CAPS_RelativeHumidity_IsbL-0550_RLatLon0.03_PT048H.grib2 2026-05-01 18:27 2.2M
20260501T12Z_MSC_CAPS_RelativeHumidity_IsbL-0600_RLatLon0.03_PT048H.grib2 2026-05-01 18:27 2.2M
20260501T12Z_MSC_CAPS_RelativeHumidity_IsbL-0650_RLatLon0.03_PT048H.grib2 2026-05-01 18:27 2.3M
20260501T12Z_MSC_CAPS_RelativeHumidity_IsbL-0700_RLatLon0.03_PT048H.grib2 2026-05-01 18:27 2.4M
20260501T12Z_MSC_CAPS_RelativeHumidity_IsbL-0750_RLatLon0.03_PT048H.grib2 2026-05-01 18:27 2.4M
20260501T12Z_MSC_CAPS_RelativeHumidity_IsbL-0800_RLatLon0.03_PT048H.grib2 2026-05-01 18:27 2.5M
20260501T12Z_MSC_CAPS_RelativeHumidity_IsbL-0850_RLatLon0.03_PT048H.grib2 2026-05-01 18:27 2.5M
20260501T12Z_MSC_CAPS_RelativeHumidity_IsbL-0875_RLatLon0.03_PT048H.grib2 2026-05-01 18:27 2.5M
20260501T12Z_MSC_CAPS_RelativeHumidity_IsbL-0900_RLatLon0.03_PT048H.grib2 2026-05-01 18:27 2.6M
20260501T12Z_MSC_CAPS_RelativeHumidity_IsbL-0925_RLatLon0.03_PT048H.grib2 2026-05-01 18:27 2.6M
20260501T12Z_MSC_CAPS_RelativeHumidity_IsbL-0950_RLatLon0.03_PT048H.grib2 2026-05-01 18:27 2.7M
20260501T12Z_MSC_CAPS_RelativeHumidity_IsbL-0970_RLatLon0.03_PT048H.grib2 2026-05-01 18:27 2.7M
20260501T12Z_MSC_CAPS_RelativeHumidity_IsbL-0985_RLatLon0.03_PT048H.grib2 2026-05-01 18:27 2.8M
20260501T12Z_MSC_CAPS_RelativeHumidity_IsbL-1000_RLatLon0.03_PT048H.grib2 2026-05-01 18:27 2.8M
20260501T12Z_MSC_CAPS_RelativeHumidity_IsbL-1015_RLatLon0.03_PT048H.grib2 2026-05-01 18:27 2.9M
20260501T12Z_MSC_CAPS_Runoff-Accum_Sfc_RLatLon0.03_PT048H.grib2 2026-05-01 18:27 363K
20260501T12Z_MSC_CAPS_SeaIceAreaFraction_Sfc_RLatLon0.03_PT048H.nc 2026-05-01 18:14 15M
20260501T12Z_MSC_CAPS_SeaIceCompressiveStrength_Sfc_RLatLon0.03_PT048H.nc 2026-05-01 18:14 15M
20260501T12Z_MSC_CAPS_SeaIceDivergence_Sfc_RLatLon0.03_PT048H.nc 2026-05-01 18:14 15M
20260501T12Z_MSC_CAPS_SeaIceInternalPressure_Sfc_RLatLon0.03_PT048H.nc 2026-05-01 18:14 15M
20260501T12Z_MSC_CAPS_SeaIceShear_Sfc_RLatLon0.03_PT048H.nc 2026-05-01 18:14 14M
20260501T12Z_MSC_CAPS_SeaIceSnowTemp_Sfc_RLatLon0.03_PT048H.nc 2026-05-01 18:14 14M
20260501T12Z_MSC_CAPS_SeaIceSnowVolume_Sfc_RLatLon0.03_PT048H.nc 2026-05-01 18:14 15M
20260501T12Z_MSC_CAPS_SeaIceVelocityX_Sfc_RLatLon0.03_PT048H.nc 2026-05-01 18:14 15M
20260501T12Z_MSC_CAPS_SeaIceVelocityY_Sfc_RLatLon0.03_PT048H.nc 2026-05-01 18:14 15M
20260501T12Z_MSC_CAPS_SeaIceVolume_Sfc_RLatLon0.03_PT048H.nc 2026-05-01 18:14 15M
20260501T12Z_MSC_CAPS_SeaSurfaceHeight_Sfc_RLatLon0.03_PT048H.nc 2026-05-01 18:14 16M
20260501T12Z_MSC_CAPS_SeaWaterSalinity_DBS-0.5m_RLatLon0.03_PT048H.nc 2026-05-01 18:14 16M
20260501T12Z_MSC_CAPS_SeaWaterSalinity_DBS-all_RLatLon0.03_PT048H.nc 2026-05-01 18:14 107M
20260501T12Z_MSC_CAPS_SeaWaterTemp_DBS-0.5m_RLatLon0.03_PT048H.nc 2026-05-01 18:14 14M
20260501T12Z_MSC_CAPS_SeaWaterTemp_DBS-all_RLatLon0.03_PT048H.nc 2026-05-01 18:14 88M
20260501T12Z_MSC_CAPS_SeaWaterVelocityX_DBS-0.5m_RLatLon0.03_PT048H.nc 2026-05-01 18:14 17M
20260501T12Z_MSC_CAPS_SeaWaterVelocityX_DBS-all_RLatLon0.03_PT048H.nc 2026-05-01 18:14 199M
20260501T12Z_MSC_CAPS_SeaWaterVelocityY_DBS-0.5m_RLatLon0.03_PT048H.nc 2026-05-01 18:14 17M
20260501T12Z_MSC_CAPS_SeaWaterVelocityY_DBS-all_RLatLon0.03_PT048H.nc 2026-05-01 18:14 209M
20260501T12Z_MSC_CAPS_SensibleHeatNetFlux_Sfc_RLatLon0.03_PT048H.grib2 2026-05-01 18:27 2.0M
20260501T12Z_MSC_CAPS_ShowalterIndex_IsbL-0500_RLatLon0.03_PT048H.grib2 2026-05-01 18:27 4.3M
20260501T12Z_MSC_CAPS_Snow-Accum_Sfc_RLatLon0.03_PT048H.grib2 2026-05-01 18:27 4.4M
20260501T12Z_MSC_CAPS_SnowDensity_Sfc_RLatLon0.03_PT048H.grib2 2026-05-01 18:27 1.3M
20260501T12Z_MSC_CAPS_SnowDepthWaterEquivalent_Sfc_RLatLon0.03_PT048H.grib2 2026-05-01 18:27 675K
20260501T12Z_MSC_CAPS_SnowDepth_Sfc_RLatLon0.03_PT048H.grib2 2026-05-01 18:27 1.2M
20260501T12Z_MSC_CAPS_SoilTemp_DBS-0to10cm_RLatLon0.03_PT048H.grib2 2026-05-01 18:27 1.7M
20260501T12Z_MSC_CAPS_SoilTemp_Sfc_RLatLon0.03_PT048H.grib2 2026-05-01 18:27 1.8M
20260501T12Z_MSC_CAPS_SoilVolumetricIceContent_Sfc_RLatLon0.03_PT048H.grib2 2026-05-01 18:27 1.4M
20260501T12Z_MSC_CAPS_SoilVolumetricWaterContent_DBS-0to10cm_RLatLon0.03_PT048H.grib2 2026-05-01 18:27 1.3M
20260501T12Z_MSC_CAPS_SoilVolumetricWaterContent_DBS-0to1cm_RLatLon0.03_PT048H.grib2 2026-05-01 18:27 1.8M
20260501T12Z_MSC_CAPS_SpecificHumidity_AGL-120m_RLatLon0.03_PT048H.grib2 2026-05-01 18:27 1.8M
20260501T12Z_MSC_CAPS_SpecificHumidity_AGL-2m_RLatLon0.03_PT048H.grib2 2026-05-01 18:27 2.1M
20260501T12Z_MSC_CAPS_SpecificHumidity_AGL-40m_RLatLon0.03_PT048H.grib2 2026-05-01 18:27 1.8M
20260501T12Z_MSC_CAPS_SpecificHumidity_AGL-80m_RLatLon0.03_PT048H.grib2 2026-05-01 18:27 1.8M
20260501T12Z_MSC_CAPS_SpecificHumidity_IsbL-0050_RLatLon0.03_PT048H.grib2 2026-05-01 18:27 932K
20260501T12Z_MSC_CAPS_SpecificHumidity_IsbL-0100_RLatLon0.03_PT048H.grib2 2026-05-01 18:27 1.0M
20260501T12Z_MSC_CAPS_SpecificHumidity_IsbL-0150_RLatLon0.03_PT048H.grib2 2026-05-01 18:27 778K
20260501T12Z_MSC_CAPS_SpecificHumidity_IsbL-0175_RLatLon0.03_PT048H.grib2 2026-05-01 18:27 1.0M
20260501T12Z_MSC_CAPS_SpecificHumidity_IsbL-0200_RLatLon0.03_PT048H.grib2 2026-05-01 18:27 1.0M
20260501T12Z_MSC_CAPS_SpecificHumidity_IsbL-0225_RLatLon0.03_PT048H.grib2 2026-05-01 18:27 850K
20260501T12Z_MSC_CAPS_SpecificHumidity_IsbL-0250_RLatLon0.03_PT048H.grib2 2026-05-01 18:27 1.1M
20260501T12Z_MSC_CAPS_SpecificHumidity_IsbL-0275_RLatLon0.03_PT048H.grib2 2026-05-01 18:27 1.1M
20260501T12Z_MSC_CAPS_SpecificHumidity_IsbL-0300_RLatLon0.03_PT048H.grib2 2026-05-01 18:27 1.0M
20260501T12Z_MSC_CAPS_SpecificHumidity_IsbL-0350_RLatLon0.03_PT048H.grib2 2026-05-01 18:27 1.1M
20260501T12Z_MSC_CAPS_SpecificHumidity_IsbL-0400_RLatLon0.03_PT048H.grib2 2026-05-01 18:27 1.3M
20260501T12Z_MSC_CAPS_SpecificHumidity_IsbL-0450_RLatLon0.03_PT048H.grib2 2026-05-01 18:27 1.1M
20260501T12Z_MSC_CAPS_SpecificHumidity_IsbL-0500_RLatLon0.03_PT048H.grib2 2026-05-01 18:27 1.1M
20260501T12Z_MSC_CAPS_SpecificHumidity_IsbL-0550_RLatLon0.03_PT048H.grib2 2026-05-01 18:27 1.3M
20260501T12Z_MSC_CAPS_SpecificHumidity_IsbL-0600_RLatLon0.03_PT048H.grib2 2026-05-01 18:27 1.4M
20260501T12Z_MSC_CAPS_SpecificHumidity_IsbL-0650_RLatLon0.03_PT048H.grib2 2026-05-01 18:27 1.5M
20260501T12Z_MSC_CAPS_SpecificHumidity_IsbL-0700_RLatLon0.03_PT048H.grib2 2026-05-01 18:27 1.7M
20260501T12Z_MSC_CAPS_SpecificHumidity_IsbL-0750_RLatLon0.03_PT048H.grib2 2026-05-01 18:27 1.4M
20260501T12Z_MSC_CAPS_SpecificHumidity_IsbL-0800_RLatLon0.03_PT048H.grib2 2026-05-01 18:27 1.5M
20260501T12Z_MSC_CAPS_SpecificHumidity_IsbL-0850_RLatLon0.03_PT048H.grib2 2026-05-01 18:27 1.7M
20260501T12Z_MSC_CAPS_SpecificHumidity_IsbL-0875_RLatLon0.03_PT048H.grib2 2026-05-01 18:27 1.7M
20260501T12Z_MSC_CAPS_SpecificHumidity_IsbL-0900_RLatLon0.03_PT048H.grib2 2026-05-01 18:27 1.8M
20260501T12Z_MSC_CAPS_SpecificHumidity_IsbL-0925_RLatLon0.03_PT048H.grib2 2026-05-01 18:27 1.8M
20260501T12Z_MSC_CAPS_SpecificHumidity_IsbL-0950_RLatLon0.03_PT048H.grib2 2026-05-01 18:27 1.9M
20260501T12Z_MSC_CAPS_SpecificHumidity_IsbL-0970_RLatLon0.03_PT048H.grib2 2026-05-01 18:27 2.0M
20260501T12Z_MSC_CAPS_SpecificHumidity_IsbL-0985_RLatLon0.03_PT048H.grib2 2026-05-01 18:27 2.0M
20260501T12Z_MSC_CAPS_SpecificHumidity_IsbL-1000_RLatLon0.03_PT048H.grib2 2026-05-01 18:27 2.1M
20260501T12Z_MSC_CAPS_SpecificHumidity_IsbL-1015_RLatLon0.03_PT048H.grib2 2026-05-01 18:27 2.1M
20260501T12Z_MSC_CAPS_SpecificHumidity_Sfc_RLatLon0.03_PT048H.grib2 2026-05-01 18:27 2.0M
20260501T12Z_MSC_CAPS_StormRelativeHelicity_Sfc_RLatLon0.03_PT048H.grib2 2026-05-01 18:27 3.3M
20260501T12Z_MSC_CAPS_Thickness_IsbL-1000to0500_RLatLon0.03_PT048H.grib2 2026-05-01 18:27 479K
20260501T12Z_MSC_CAPS_TotalCloudCover_Sfc_RLatLon0.03_PT048H.grib2 2026-05-01 18:27 3.6M
20260501T12Z_MSC_CAPS_TurboclineDepth_Sfc_RLatLon0.03_PT048H.nc 2026-05-01 18:14 16M
20260501T12Z_MSC_CAPS_UpwardLongwaveRadiationFlux_NTAtm_RLatLon0.03_PT048H.grib2 2026-05-01 18:27 2.9M
20260501T12Z_MSC_CAPS_UpwardShortwaveRadiationFlux_NTAtm_RLatLon0.03_PT048H.grib2 2026-05-01 18:27 2.1M
20260501T12Z_MSC_CAPS_VerticalVelocity_IsbL-0250_RLatLon0.03_PT048H.grib2 2026-05-01 18:27 910K
20260501T12Z_MSC_CAPS_VerticalVelocity_IsbL-0500_RLatLon0.03_PT048H.grib2 2026-05-01 18:27 1.1M
20260501T12Z_MSC_CAPS_VerticalVelocity_IsbL-0700_RLatLon0.03_PT048H.grib2 2026-05-01 18:27 1.2M
20260501T12Z_MSC_CAPS_VerticalVelocity_IsbL-0850_RLatLon0.03_PT048H.grib2 2026-05-01 18:27 1.4M
20260501T12Z_MSC_CAPS_VerticalVelocity_IsbL-1000_RLatLon0.03_PT048H.grib2 2026-05-01 18:27 1.4M
20260501T12Z_MSC_CAPS_WindDir_AGL-10m_RLatLon0.03_PT048H.grib2 2026-05-01 18:27 2.3M
20260501T12Z_MSC_CAPS_WindDir_AGL-120m_RLatLon0.03_PT048H.grib2 2026-05-01 18:27 1.2M
20260501T12Z_MSC_CAPS_WindDir_AGL-40m_RLatLon0.03_PT048H.grib2 2026-05-01 18:27 1.3M
20260501T12Z_MSC_CAPS_WindDir_AGL-80m_RLatLon0.03_PT048H.grib2 2026-05-01 18:27 1.2M
20260501T12Z_MSC_CAPS_WindDir_IsbL-0050_RLatLon0.03_PT048H.grib2 2026-05-01 18:27 1.0M
20260501T12Z_MSC_CAPS_WindDir_IsbL-0100_RLatLon0.03_PT048H.grib2 2026-05-01 18:27 1.1M
20260501T12Z_MSC_CAPS_WindDir_IsbL-0150_RLatLon0.03_PT048H.grib2 2026-05-01 18:27 1.0M
20260501T12Z_MSC_CAPS_WindDir_IsbL-0175_RLatLon0.03_PT048H.grib2 2026-05-01 18:27 1.1M
20260501T12Z_MSC_CAPS_WindDir_IsbL-0200_RLatLon0.03_PT048H.grib2 2026-05-01 18:27 1.1M
20260501T12Z_MSC_CAPS_WindDir_IsbL-0225_RLatLon0.03_PT048H.grib2 2026-05-01 18:27 1.1M
20260501T12Z_MSC_CAPS_WindDir_IsbL-0250_RLatLon0.03_PT048H.grib2 2026-05-01 18:27 1.1M
20260501T12Z_MSC_CAPS_WindDir_IsbL-0275_RLatLon0.03_PT048H.grib2 2026-05-01 18:27 1.1M
20260501T12Z_MSC_CAPS_WindDir_IsbL-0300_RLatLon0.03_PT048H.grib2 2026-05-01 18:27 1.1M
20260501T12Z_MSC_CAPS_WindDir_IsbL-0350_RLatLon0.03_PT048H.grib2 2026-05-01 18:27 1.1M
20260501T12Z_MSC_CAPS_WindDir_IsbL-0400_RLatLon0.03_PT048H.grib2 2026-05-01 18:27 1.1M
20260501T12Z_MSC_CAPS_WindDir_IsbL-0450_RLatLon0.03_PT048H.grib2 2026-05-01 18:27 1.2M
20260501T12Z_MSC_CAPS_WindDir_IsbL-0500_RLatLon0.03_PT048H.grib2 2026-05-01 18:27 1.2M
20260501T12Z_MSC_CAPS_WindDir_IsbL-0550_RLatLon0.03_PT048H.grib2 2026-05-01 18:27 1.3M
20260501T12Z_MSC_CAPS_WindDir_IsbL-0600_RLatLon0.03_PT048H.grib2 2026-05-01 18:27 1.3M
20260501T12Z_MSC_CAPS_WindDir_IsbL-0650_RLatLon0.03_PT048H.grib2 2026-05-01 18:27 1.3M
20260501T12Z_MSC_CAPS_WindDir_IsbL-0700_RLatLon0.03_PT048H.grib2 2026-05-01 18:27 1.4M
20260501T12Z_MSC_CAPS_WindDir_IsbL-0750_RLatLon0.03_PT048H.grib2 2026-05-01 18:27 1.5M
20260501T12Z_MSC_CAPS_WindDir_IsbL-0800_RLatLon0.03_PT048H.grib2 2026-05-01 18:27 1.6M
20260501T12Z_MSC_CAPS_WindDir_IsbL-0850_RLatLon0.03_PT048H.grib2 2026-05-01 18:27 1.7M
20260501T12Z_MSC_CAPS_WindDir_IsbL-0875_RLatLon0.03_PT048H.grib2 2026-05-01 18:27 1.8M
20260501T12Z_MSC_CAPS_WindDir_IsbL-0900_RLatLon0.03_PT048H.grib2 2026-05-01 18:27 1.9M
20260501T12Z_MSC_CAPS_WindDir_IsbL-0925_RLatLon0.03_PT048H.grib2 2026-05-01 18:27 1.9M
20260501T12Z_MSC_CAPS_WindDir_IsbL-0950_RLatLon0.03_PT048H.grib2 2026-05-01 18:27 2.0M
20260501T12Z_MSC_CAPS_WindDir_IsbL-0970_RLatLon0.03_PT048H.grib2 2026-05-01 18:27 2.1M
20260501T12Z_MSC_CAPS_WindDir_IsbL-0985_RLatLon0.03_PT048H.grib2 2026-05-01 18:27 2.1M
20260501T12Z_MSC_CAPS_WindDir_IsbL-1000_RLatLon0.03_PT048H.grib2 2026-05-01 18:27 2.2M
20260501T12Z_MSC_CAPS_WindDir_IsbL-1015_RLatLon0.03_PT048H.grib2 2026-05-01 18:27 2.3M
20260501T12Z_MSC_CAPS_WindGust-Max_AGL-10m_RLatLon0.03_PT048H.grib2 2026-05-01 18:27 2.5M
20260501T12Z_MSC_CAPS_WindGust-Min_AGL-10m_RLatLon0.03_PT048H.grib2 2026-05-01 18:27 2.4M
20260501T12Z_MSC_CAPS_WindGust_AGL-10m_RLatLon0.03_PT048H.grib2 2026-05-01 18:27 2.5M
20260501T12Z_MSC_CAPS_WindSpeed_AGL-10m_RLatLon0.03_PT048H.grib2 2026-05-01 18:27 2.1M
20260501T12Z_MSC_CAPS_WindSpeed_AGL-120m_RLatLon0.03_PT048H.grib2 2026-05-01 18:27 1.1M
20260501T12Z_MSC_CAPS_WindSpeed_AGL-40m_RLatLon0.03_PT048H.grib2 2026-05-01 18:27 1.2M
20260501T12Z_MSC_CAPS_WindSpeed_AGL-80m_RLatLon0.03_PT048H.grib2 2026-05-01 18:27 1.2M
20260501T12Z_MSC_CAPS_WindSpeed_IsbL-0050_RLatLon0.03_PT048H.grib2 2026-05-01 18:27 935K
20260501T12Z_MSC_CAPS_WindSpeed_IsbL-0100_RLatLon0.03_PT048H.grib2 2026-05-01 18:27 1.0M
20260501T12Z_MSC_CAPS_WindSpeed_IsbL-0150_RLatLon0.03_PT048H.grib2 2026-05-01 18:27 1.1M
20260501T12Z_MSC_CAPS_WindSpeed_IsbL-0175_RLatLon0.03_PT048H.grib2 2026-05-01 18:27 1.2M
20260501T12Z_MSC_CAPS_WindSpeed_IsbL-0200_RLatLon0.03_PT048H.grib2 2026-05-01 18:27 938K
20260501T12Z_MSC_CAPS_WindSpeed_IsbL-0225_RLatLon0.03_PT048H.grib2 2026-05-01 18:27 954K
20260501T12Z_MSC_CAPS_WindSpeed_IsbL-0250_RLatLon0.03_PT048H.grib2 2026-05-01 18:27 970K
20260501T12Z_MSC_CAPS_WindSpeed_IsbL-0275_RLatLon0.03_PT048H.grib2 2026-05-01 18:27 1.0M
20260501T12Z_MSC_CAPS_WindSpeed_IsbL-0300_RLatLon0.03_PT048H.grib2 2026-05-01 18:27 1.0M
20260501T12Z_MSC_CAPS_WindSpeed_IsbL-0350_RLatLon0.03_PT048H.grib2 2026-05-01 18:27 1.0M
20260501T12Z_MSC_CAPS_WindSpeed_IsbL-0400_RLatLon0.03_PT048H.grib2 2026-05-01 18:27 1.0M
20260501T12Z_MSC_CAPS_WindSpeed_IsbL-0450_RLatLon0.03_PT048H.grib2 2026-05-01 18:27 1.0M
20260501T12Z_MSC_CAPS_WindSpeed_IsbL-0500_RLatLon0.03_PT048H.grib2 2026-05-01 18:27 1.4M
20260501T12Z_MSC_CAPS_WindSpeed_IsbL-0550_RLatLon0.03_PT048H.grib2 2026-05-01 18:27 1.5M
20260501T12Z_MSC_CAPS_WindSpeed_IsbL-0600_RLatLon0.03_PT048H.grib2 2026-05-01 18:27 1.4M
20260501T12Z_MSC_CAPS_WindSpeed_IsbL-0650_RLatLon0.03_PT048H.grib2 2026-05-01 18:27 1.4M
20260501T12Z_MSC_CAPS_WindSpeed_IsbL-0700_RLatLon0.03_PT048H.grib2 2026-05-01 18:27 1.5M
20260501T12Z_MSC_CAPS_WindSpeed_IsbL-0750_RLatLon0.03_PT048H.grib2 2026-05-01 18:27 1.5M
20260501T12Z_MSC_CAPS_WindSpeed_IsbL-0800_RLatLon0.03_PT048H.grib2 2026-05-01 18:27 1.6M
20260501T12Z_MSC_CAPS_WindSpeed_IsbL-0850_RLatLon0.03_PT048H.grib2 2026-05-01 18:27 1.8M
20260501T12Z_MSC_CAPS_WindSpeed_IsbL-0875_RLatLon0.03_PT048H.grib2 2026-05-01 18:27 1.8M
20260501T12Z_MSC_CAPS_WindSpeed_IsbL-0900_RLatLon0.03_PT048H.grib2 2026-05-01 18:27 1.8M
20260501T12Z_MSC_CAPS_WindSpeed_IsbL-0925_RLatLon0.03_PT048H.grib2 2026-05-01 18:27 1.9M
20260501T12Z_MSC_CAPS_WindSpeed_IsbL-0950_RLatLon0.03_PT048H.grib2 2026-05-01 18:27 1.9M
20260501T12Z_MSC_CAPS_WindSpeed_IsbL-0970_RLatLon0.03_PT048H.grib2 2026-05-01 18:27 2.0M
20260501T12Z_MSC_CAPS_WindSpeed_IsbL-0985_RLatLon0.03_PT048H.grib2 2026-05-01 18:27 2.0M
20260501T12Z_MSC_CAPS_WindSpeed_IsbL-1000_RLatLon0.03_PT048H.grib2 2026-05-01 18:27 2.0M
20260501T12Z_MSC_CAPS_WindSpeed_IsbL-1015_RLatLon0.03_PT048H.grib2 2026-05-01 18:27 2.1M
20260501T12Z_MSC_CAPS_WindU_AGL-10m_RLatLon0.03_PT048H.grib2 2026-05-01 18:27 1.9M
20260501T12Z_MSC_CAPS_WindU_AGL-120m_RLatLon0.03_PT048H.grib2 2026-05-01 18:27 904K
20260501T12Z_MSC_CAPS_WindU_AGL-40m_RLatLon0.03_PT048H.grib2 2026-05-01 18:27 1.2M
20260501T12Z_MSC_CAPS_WindU_AGL-80m_RLatLon0.03_PT048H.grib2 2026-05-01 18:27 911K
20260501T12Z_MSC_CAPS_WindU_IsbL-0050_RLatLon0.03_PT048H.grib2 2026-05-01 18:27 945K
20260501T12Z_MSC_CAPS_WindU_IsbL-0100_RLatLon0.03_PT048H.grib2 2026-05-01 18:27 1.0M
20260501T12Z_MSC_CAPS_WindU_IsbL-0150_RLatLon0.03_PT048H.grib2 2026-05-01 18:27 716K
20260501T12Z_MSC_CAPS_WindU_IsbL-0175_RLatLon0.03_PT048H.grib2 2026-05-01 18:27 850K
20260501T12Z_MSC_CAPS_WindU_IsbL-0200_RLatLon0.03_PT048H.grib2 2026-05-01 18:27 867K
20260501T12Z_MSC_CAPS_WindU_IsbL-0225_RLatLon0.03_PT048H.grib2 2026-05-01 18:27 888K
20260501T12Z_MSC_CAPS_WindU_IsbL-0250_RLatLon0.03_PT048H.grib2 2026-05-01 18:27 909K
20260501T12Z_MSC_CAPS_WindU_IsbL-0275_RLatLon0.03_PT048H.grib2 2026-05-01 18:27 704K
20260501T12Z_MSC_CAPS_WindU_IsbL-0300_RLatLon0.03_PT048H.grib2 2026-05-01 18:27 713K
20260501T12Z_MSC_CAPS_WindU_IsbL-0350_RLatLon0.03_PT048H.grib2 2026-05-01 18:27 725K
20260501T12Z_MSC_CAPS_WindU_IsbL-0400_RLatLon0.03_PT048H.grib2 2026-05-01 18:27 946K
20260501T12Z_MSC_CAPS_WindU_IsbL-0450_RLatLon0.03_PT048H.grib2 2026-05-01 18:27 970K
20260501T12Z_MSC_CAPS_WindU_IsbL-0500_RLatLon0.03_PT048H.grib2 2026-05-01 18:27 1.0M
20260501T12Z_MSC_CAPS_WindU_IsbL-0550_RLatLon0.03_PT048H.grib2 2026-05-01 18:27 1.0M
20260501T12Z_MSC_CAPS_WindU_IsbL-0600_RLatLon0.03_PT048H.grib2 2026-05-01 18:27 959K
20260501T12Z_MSC_CAPS_WindU_IsbL-0650_RLatLon0.03_PT048H.grib2 2026-05-01 18:27 1.0M
20260501T12Z_MSC_CAPS_WindU_IsbL-0700_RLatLon0.03_PT048H.grib2 2026-05-01 18:27 1.0M
20260501T12Z_MSC_CAPS_WindU_IsbL-0750_RLatLon0.03_PT048H.grib2 2026-05-01 18:27 1.4M
20260501T12Z_MSC_CAPS_WindU_IsbL-0800_RLatLon0.03_PT048H.grib2 2026-05-01 18:27 1.4M
20260501T12Z_MSC_CAPS_WindU_IsbL-0850_RLatLon0.03_PT048H.grib2 2026-05-01 18:27 1.2M
20260501T12Z_MSC_CAPS_WindU_IsbL-0875_RLatLon0.03_PT048H.grib2 2026-05-01 18:27 1.2M
20260501T12Z_MSC_CAPS_WindU_IsbL-0900_RLatLon0.03_PT048H.grib2 2026-05-01 18:27 1.3M
20260501T12Z_MSC_CAPS_WindU_IsbL-0925_RLatLon0.03_PT048H.grib2 2026-05-01 18:27 1.3M
20260501T12Z_MSC_CAPS_WindU_IsbL-0950_RLatLon0.03_PT048H.grib2 2026-05-01 18:27 1.4M
20260501T12Z_MSC_CAPS_WindU_IsbL-0970_RLatLon0.03_PT048H.grib2 2026-05-01 18:27 1.4M
20260501T12Z_MSC_CAPS_WindU_IsbL-0985_RLatLon0.03_PT048H.grib2 2026-05-01 18:27 1.4M
20260501T12Z_MSC_CAPS_WindU_IsbL-1000_RLatLon0.03_PT048H.grib2 2026-05-01 18:27 1.8M
20260501T12Z_MSC_CAPS_WindU_IsbL-1015_RLatLon0.03_PT048H.grib2 2026-05-01 18:27 1.9M
20260501T12Z_MSC_CAPS_WindV_AGL-10m_RLatLon0.03_PT048H.grib2 2026-05-01 18:27 1.9M
20260501T12Z_MSC_CAPS_WindV_AGL-120m_RLatLon0.03_PT048H.grib2 2026-05-01 18:27 1.2M
20260501T12Z_MSC_CAPS_WindV_AGL-40m_RLatLon0.03_PT048H.grib2 2026-05-01 18:27 1.2M
20260501T12Z_MSC_CAPS_WindV_AGL-80m_RLatLon0.03_PT048H.grib2 2026-05-01 18:27 1.2M
20260501T12Z_MSC_CAPS_WindV_IsbL-0050_RLatLon0.03_PT048H.grib2 2026-05-01 18:27 767K
20260501T12Z_MSC_CAPS_WindV_IsbL-0100_RLatLon0.03_PT048H.grib2 2026-05-01 18:27 1.0M
20260501T12Z_MSC_CAPS_WindV_IsbL-0150_RLatLon0.03_PT048H.grib2 2026-05-01 18:27 719K
20260501T12Z_MSC_CAPS_WindV_IsbL-0175_RLatLon0.03_PT048H.grib2 2026-05-01 18:27 852K
20260501T12Z_MSC_CAPS_WindV_IsbL-0200_RLatLon0.03_PT048H.grib2 2026-05-01 18:27 870K
20260501T12Z_MSC_CAPS_WindV_IsbL-0225_RLatLon0.03_PT048H.grib2 2026-05-01 18:27 678K
20260501T12Z_MSC_CAPS_WindV_IsbL-0250_RLatLon0.03_PT048H.grib2 2026-05-01 18:27 697K
20260501T12Z_MSC_CAPS_WindV_IsbL-0275_RLatLon0.03_PT048H.grib2 2026-05-01 18:27 706K
20260501T12Z_MSC_CAPS_WindV_IsbL-0300_RLatLon0.03_PT048H.grib2 2026-05-01 18:27 713K
20260501T12Z_MSC_CAPS_WindV_IsbL-0350_RLatLon0.03_PT048H.grib2 2026-05-01 18:27 723K
20260501T12Z_MSC_CAPS_WindV_IsbL-0400_RLatLon0.03_PT048H.grib2 2026-05-01 18:27 944K
20260501T12Z_MSC_CAPS_WindV_IsbL-0450_RLatLon0.03_PT048H.grib2 2026-05-01 18:27 970K
20260501T12Z_MSC_CAPS_WindV_IsbL-0500_RLatLon0.03_PT048H.grib2 2026-05-01 18:27 1.0M
20260501T12Z_MSC_CAPS_WindV_IsbL-0550_RLatLon0.03_PT048H.grib2 2026-05-01 18:27 933K
20260501T12Z_MSC_CAPS_WindV_IsbL-0600_RLatLon0.03_PT048H.grib2 2026-05-01 18:27 955K
20260501T12Z_MSC_CAPS_WindV_IsbL-0650_RLatLon0.03_PT048H.grib2 2026-05-01 18:27 1.2M
20260501T12Z_MSC_CAPS_WindV_IsbL-0700_RLatLon0.03_PT048H.grib2 2026-05-01 18:27 1.0M
20260501T12Z_MSC_CAPS_WindV_IsbL-0750_RLatLon0.03_PT048H.grib2 2026-05-01 18:27 1.1M
20260501T12Z_MSC_CAPS_WindV_IsbL-0800_RLatLon0.03_PT048H.grib2 2026-05-01 18:27 1.1M
20260501T12Z_MSC_CAPS_WindV_IsbL-0850_RLatLon0.03_PT048H.grib2 2026-05-01 18:27 1.2M
20260501T12Z_MSC_CAPS_WindV_IsbL-0875_RLatLon0.03_PT048H.grib2 2026-05-01 18:27 1.2M
20260501T12Z_MSC_CAPS_WindV_IsbL-0900_RLatLon0.03_PT048H.grib2 2026-05-01 18:27 1.3M
20260501T12Z_MSC_CAPS_WindV_IsbL-0925_RLatLon0.03_PT048H.grib2 2026-05-01 18:27 1.3M
20260501T12Z_MSC_CAPS_WindV_IsbL-0950_RLatLon0.03_PT048H.grib2 2026-05-01 18:27 1.4M
20260501T12Z_MSC_CAPS_WindV_IsbL-0970_RLatLon0.03_PT048H.grib2 2026-05-01 18:27 1.4M
20260501T12Z_MSC_CAPS_WindV_IsbL-0985_RLatLon0.03_PT048H.grib2 2026-05-01 18:27 1.8M
20260501T12Z_MSC_CAPS_WindV_IsbL-1000_RLatLon0.03_PT048H.grib2 2026-05-01 18:27 1.8M
20260501T12Z_MSC_CAPS_WindV_IsbL-1015_RLatLon0.03_PT048H.grib2 2026-05-01 18:27 1.8M